Fayetteville Regional Grannis Field
KFAY : now visible

Airfield :











YOU CAN JOIN US ON...

 
LOGIN :

Register | Disclaimer

   EN    FR    IT 

 









Legend :    VFR   Marginal VFR   IFR   Intensive IFR   Very Intensive IFR
Visi :
Ceiling :
>= 8 km
>= 3000ft
5 to 8 km
1000 to 3000 ft
1500m to 5 km
500 to 1000 ft
800 to 1500m
200 to 500 ft
< 800m
< 200 ft
Symbols :   Thunderstorms  Fog  Heavy snow  Heavy precipitations  Wind > 20 kt






- Airport Elevation : 189 ft
- IATA code : FAY


KFAY - Fayetteville Regional Grannis Field

CURRENT METAR :
  • 172153Z 28014G26KT 10SM CLR 06/M07 A2972 RMK AO2 PK WND 28026/2055 SLP061 T00561072

EXPIRED METARs :
  • 172053Z 27018G25KT 10SM CLR 07/M04 A2968 RMK AO2 PK WND 24027/2010 SLP046 T00721044 53028
  • 171953Z 27016G29KT 10SM BKN049 OVC060 07/M03 A2965 RMK AO2 PK WND 27029/1946 SLP037 T00721033

TAF KFAY
Valid from the 17 at 18:00 until the 18 at 18:00 UTC


171730Z 1718/1818 27020G30KT P6SM SCT035 BKN100
FM172300 27010G18KT P6SM SKC
FM180600 27006KT P6SM SKC
KZDC FIR / North America



MET'MAP, your aeronautical weather chart ! - Copyright ORBIFLY December 2007 - Disclaimer

ORBIFLY MET'MAP TEAM :

Programming & Development : Alexandra Zaïnal
Concept & original design : Baudouin d'Aumeries
Assistance for programming : Marc-Olivier Méhu
Technical & hardware support : Manuel Goepfert

Contact : metmap@orbifly.com




SOURCES & CREDITS :

   NOAA       Earth
Advisory